User: anonymous   Login
Location: Coupvray
(48.8929°N, 2.7967°E)
Time: 22:33:36
(UTC+00:00)
Language:

UNK - Orbit

View from above orbital plane
View from above orbital plane
View from above satellite
View from above satellite

Ground track
Ground track

The orbit data is extracted from the following two-line orbital elements,

1 27940U 03042B   20272.61268828 +.00000103 +00000-0 +28017-4 0  9991
2 27940 098.1264 042.1554 0015369 086.0810 274.2150 14.65183910908536
Epoch (UTC): 28 September 2020 14:42:16
Eccentricity: 0.0015369
inclination: 98.1264°
perigee height: 665 km
apogee height: 687 km
right ascension of ascending node: 42.1554°
argument of perigee: 86.0810°
revolutions per day: 14.65183910
mean anomaly at epoch: 274.2150°
orbit number at epoch: 90853

The dashed part of the orbit path shows where the satellite is in the earth's shadow,  

DLR